Weather History for Lexington, KY

Change the Weather History Date:

Thursday, March 15, 2012

  Actual Average Record
Temperature  
Mean Temperature 68 °F 45 °F  
Max Temperature 78 °F 55 °F 81 °F (1944)
Min Temperature 58 °F 35 °F 11 °F (1993)
Degree Days  
Heating Degree Days 0 20  
Month to date heating degree days 225 330  
Since 1 July heating degree days 3391 3901  
Cooling Degree Days 3 0  
Month to date cooling degree days 3 0  
Year to date cooling degree days 3 0  
Growing Degree Days 18 (Base 50)    
Moisture  
Dew Point 56 °F    
Average Humidity 74    
Maximum Humidity 93    
Minimum Humidity 54    
Precipitation  
Precipitation 0.14 in 0.13 in 1.75 in (1948)
Month to date precipitation 1.97 1.91  
Year to date precipitation 8.60 8.31  
Snow  
Snow 0.00 in 0.00 in 4.80 in (1896)
Month to date snowfall 5.3 0.8  
Since 1 July snowfall 7.6 12.1  
Snow Depth 0.00 in    
Sea Level Pressure  
Sea Level Pressure 30.16 in    
Wind  
Wind Speed 9 mph (SSW)    
Max Wind Speed 29 mph    
Max Gust Speed 38 mph    
Visibility 10 miles    
Events Rain    
T = Trace of Precipitation, MM = Missing Value Source: NWS Daily Summary

Daily Weather History Graph

Daily Weather History Graph

Search for Another Location

Airport:

Trip Planner

Search our weather history database for the weather conditions in past years. The results will help you decide how hot, cold, wet, or windy it might be!

Date:

Astronomy

Mar. 15, 2012 Rise Set
Actual Time 7:48 AM EDT 7:46 PM EDT
Civil Twilight 7:22 AM EDT 8:12 PM EDT
Nautical Twilight 6:52 AM EDT 8:42 PM EDT
Astronomical Twilight 6:21 AM EDT 9:13 PM EDT
Moon 3:10 AM EDT (3/15) 1:07 PM EDT (3/15)
Length of Visible Light 12h 49m
Length of Day
11h 57m
Last Quarter, 43% of the Moon is Illuminated
Mar 15
Last Quarter
Mar 22
New
Mar 30
First Quarter
Apr 6
Full
Apr 13
Last Quarter

Hourly Weather History & Observations

Time (EDT) Temp. Dew Point Humidity Pressure Visibility Wind Dir Wind Speed Gust Speed Precip Events Conditions
12:54 AM 63.0 °F 50.0 °F 63% 30.14 in 10.0 mi SSE 6.9 mph - N/A   Scattered Clouds
1:54 AM 64.0 °F 50.0 °F 60% 30.14 in 10.0 mi South 9.2 mph - N/A   Partly Cloudy
2:54 AM 63.0 °F 50.0 °F 63% 30.14 in 10.0 mi South 6.9 mph - N/A   Clear
3:54 AM 62.1 °F 51.1 °F 67% 30.13 in 10.0 mi South 8.1 mph - N/A   Scattered Clouds
4:54 AM 61.0 °F 51.1 °F 70% 30.13 in 10.0 mi SSW 8.1 mph - N/A   Clear
5:54 AM 60.1 °F 52.0 °F 75% 30.15 in 10.0 mi SSW 6.9 mph - N/A   Clear
6:54 AM 61.0 °F 55.0 °F 81% 30.15 in 10.0 mi SSW 10.4 mph - N/A   Mostly Cloudy
7:54 AM 60.1 °F 55.9 °F 86% 30.17 in 10.0 mi SSW 8.1 mph - N/A   Scattered Clouds
8:54 AM 64.0 °F 59.0 °F 84% 30.18 in 10.0 mi SSW 12.7 mph - N/A   Mostly Cloudy
9:54 AM 63.0 °F 60.1 °F 90% 30.19 in 10.0 mi SSW 10.4 mph - 0.02 in Rain Light Rain
10:54 AM 66.0 °F 62.1 °F 87% 30.20 in 10.0 mi SW 10.4 mph - 0.00 in   Partly Cloudy
11:54 AM 71.1 °F 62.1 °F 73% 30.20 in 10.0 mi SW 13.8 mph - N/A   Partly Cloudy
12:54 PM 73.0 °F 63.0 °F 71% 30.18 in 10.0 mi SW 12.7 mph - N/A   Clear
1:54 PM 75.9 °F 63.0 °F 64% 30.17 in 10.0 mi SW 12.7 mph - N/A   Scattered Clouds
2:54 PM 75.9 °F 61.0 °F 60% 30.14 in 10.0 mi West 5.8 mph - N/A   Scattered Clouds
3:54 PM 78.1 °F 61.0 °F 56% 30.11 in 10.0 mi South 6.9 mph - N/A   Clear
4:54 PM 75.9 °F 59.0 °F 56% 30.10 in 10.0 mi South 13.8 mph - N/A   Mostly Cloudy
5:44 PM 62.6 °F 51.8 °F 68% 30.14 in 9.0 mi West 21.9 mph 36.8 mph 0.00 in Rain Light Rain
5:54 PM 61.0 °F 52.0 °F 72% 30.12 in 8.0 mi West 11.5 mph 29.9 mph 0.01 in Rain Light Rain
6:54 PM 63.0 °F 54.0 °F 72% 30.14 in 10.0 mi SE 6.9 mph - 0.00 in   Overcast
7:54 PM 62.1 °F 55.0 °F 78% 30.20 in 8.0 mi WSW 9.2 mph - 0.00 in Rain Light Rain
8:54 PM 59.0 °F 57.0 °F 93% 30.21 in 10.0 mi ENE 4.6 mph - 0.09 in Rain Light Rain
9:54 PM 59.0 °F 57.9 °F 96% 30.20 in 10.0 mi ESE 6.9 mph - 0.02 in   Overcast
10:54 PM 59.0 °F 57.0 °F 93% 30.19 in 10.0 mi SE 5.8 mph - 0.00 in Rain Light Rain
11:54 PM 57.9 °F 55.9 °F 93% 30.16 in 10.0 mi SSE 12.7 mph - 0.00 in   Partly Cloudy